STARLINK-31968, 59927

Orbit data source: Space-Track

STARLINK-31968, 59927 is a payload satellite owned by SpaceX/Seattle (US) in LEO that was launched on Sat, 01 Jun 2024 UTC via an FALCON 9 launch vehicle from the Air Force Eastern Test Range (AFETR). Payload-class satellites include a variety of spacecraft equipped with specific instruments for various scientific and technological missions. These include communications satellites like Starlink; space stations such as the ISS; scientific satellites like the Hubble; Earth observation satellites from companies like Planet Labs, Umbra, and HawkEye 360; GPS; miniature CubeSats for education and research; and military/defense satellites.

Loading next visibility...
Identifier
59927, 2024-106F
Orbit
LEO
Country
Flag of USUS
Related business
Manufacturer
SpaceX/Seattle
Mission
Operational Commercial Communications
Bus & Motor
STARLINK V2M, Unknown motor
Mass
730 kg wet, ~700 kg dry
Launch date (UTC)
2024-06-01 (2 years ago)
Launch vehicle
FALCON 9
Launch site
Air Force Eastern Test Range (AFETR)
Object type
Payload
Rocket body
Debris
Shape & HBR
Box + 2 Pan, 17.7 m
Radar Cross Section
33.884 m², Large (>1 m²)

Expand to show TLE details & history
Last TLE update: 19 hours ago

TLE from 19 hours ago
0 STARLINK-31968
1 59927U 24106F   26035.39281567 -.00001143  00000-0 -31967-4 0  9993
2 59927  43.0026 160.3015 0002837 309.4483  50.6118 15.27585992 95486
Epoch: 2026-02-04T09:25Z
TLE epoch observation values (Epoch: 2026-02-04T09:25:39.273Z)
Latitude
Longitude
-115.67218°
Altitude
481.572 km
Speed
7.627 km/s
True Right ascension
10h 41m 12s
True Declination
0° 00' 00"
Sunlit
Object was in full shadow at epoch
Visualization orbit readout
Latitude
Unknown
Longitude
Unknown
Altitude
Unknown
Speed
Unknown
Apparent Right ascension
Unknown
Apparent Declination
Unknown
Sunlit
N/A
Visualization observer readout
Local Sidereal Time
06:18:51
Azimuth
Unknown
Elevation
Unknown
Doppler factor
Unknown
Orbital elements
Apogee altitude
486.923 km
Perigee altitude
483.029 km
Semi-major axis
6,863.113 km
Eccentricity
0.00028
Inclination
43.0026°
RAAN
160.3015°
Arg. of periapsis
309.4483°
True anomaly
50.63693°
Mean anomaly
50.6118°
Eccentric anomaly
50.62437°
Mean motion
3.81735 °/min
Orbital period
94.31 mins
BSTAR
-0.000031967
Loading maneuver chart data...
Computing Atmospheric mass density...
Loading historical data...
Loading historical data...
Loading historical data...
Loading historical data...
Loading historical data...
Loading historical data...
Loading historical data...

Documentation

Showing up to 5 results
|